Theta_e
336 336 336 336 335 333 332 332 332 331 332 333 333 333 334 333 333 333 332 331 331 330 329 329 330 329 329 329 328 328 328 328 328 328 328 327 327 328 325 323 323 323 322 322 321 321 320 319 319 318 317 317 316 316 317 317 317 317 317 316 316 316 316 317 317 317 317 317 317 317 317 317 318 318
334 334 335 335 336 335 334 332 331 331 333 334 333 333 333 333 333 333 333 332 330 329 329 330 331 331 330 329 328 328 328 328 328 328 327 325 324 325 325 324 323 324 324 323 323 323 322 321 320 319 319 318 317 317 317 317 318 318 317 316 315 315 315 316 316 317 317 317 316 317 317 317 317 318
331 331 332 330 329 331 333 334 335 334 334 334 333 333 333 333 333 333 333 333 331 330 331 331 329 329 330 329 328 329 329 329 328 327 326 325 324 324 324 323 323 323 323 323 323 324 323 323 323 321 321 320 319 319 318 318 318 318 317 316 315 315 315 315 316 316 317 317 317 317 317 317 317 317
332 333 333 331 329 328 330 332 334 335 334 332 331 332 332 331 332 332 332 333 332 332 332 332 330 328 328 328 328 328 328 328 329 328 328 327 326 326 326 326 325 324 322 322 322 324 325 326 326 325 324 321 321 321 320 319 318 317 317 316 316 316 316 316 316 316 316 317 316 317 317 317 317 317
333 332 333 333 333 332 331 332 334 335 334 331 329 330 331 331 332 332 332 332 332 331 330 330 330 330 328 328 328 327 328 328 328 329 329 328 328 328 328 327 326 326 324 323 323 325 326 327 327 326 325 322 321 321 321 320 318 316 315 316 317 317 318 318 317 317 317 317 317 316 316 317 316 317
333 329 328 329 332 333 333 333 334 335 334 333 330 332 333 332 332 332 332 332 331 330 328 328 328 328 328 329 329 327 327 327 327 327 327 328 328 328 328 328 328 327 327 326 327 327 328 327 326 325 324 323 321 320 320 319 317 316 315 315 316 317 318 319 318 318 318 318 318 317 317 317 317 316
329 326 325 327 330 333 335 335 335 334 334 333 331 332 332 331 331 331 331 331 331 330 329 328 327 324 324 326 327 327 327 327 327 327 326 327 327 328 328 328 328 328 327 327 328 328 327 327 326 325 325 323 322 320 319 318 317 318 318 318 317 318 319 319 318 317 317 317 318 318 318 317 317 317
331 330 331 331 330 332 335 335 334 334 334 332 331 332 332 331 331 331 332 331 332 331 328 326 326 324 322 322 323 325 327 328 328 326 324 324 326 326 326 327 327 327 327 327 328 328 327 325 324 324 324 323 321 320 320 319 319 321 322 321 320 319 319 318 316 316 315 316 316 318 318 318 318 318
334 334 336 335 333 334 335 334 333 334 334 332 331 331 331 331 331 331 331 332 332 331 329 327 326 326 324 323 321 323 327 329 328 326 323 323 326 326 326 326 326 326 326 326 327 326 326 325 325 324 323 322 322 322 322 321 322 323 324 323 322 321 320 318 316 315 315 316 317 319 320 319 318 318
327 327 332 335 336 335 335 334 333 332 332 331 331 330 330 331 331 331 331 331 331 331 329 328 328 328 326 324 323 323 326 329 329 327 323 323 325 327 327 326 325 325 326 326 326 325 325 325 325 325 324 324 324 324 324 324 324 324 325 324 323 323 322 320 318 318 319 319 321 322 322 321 320 318
326 322 326 333 335 334 334 333 333 330 328 329 330 330 330 330 331 331 330 330 330 330 330 329 329 328 327 326 324 324 326 328 327 327 326 325 324 325 326 326 325 325 325 326 325 324 323 322 323 325 325 325 326 325 325 325 325 325 325 325 324 324 323 322 322 322 322 322 323 323 323 323 322 318
330 328 329 332 333 332 333 333 333 331 329 330 330 330 330 331 330 330 329 329 329 330 330 330 329 329 327 326 325 325 326 326 326 327 327 327 325 325 325 325 325 325 324 323 322 321 320 320 321 323 324 324 324 325 325 325 325 326 325 325 325 324 325 325 325 325 324 324 324 324 323 323 321 318
329 328 330 331 331 333 334 334 332 331 330 330 331 330 330 330 330 329 328 327 328 328 328 329 329 329 328 326 326 326 326 326 327 327 327 327 327 326 326 326 325 324 323 322 321 320 319 318 320 321 320 320 320 322 323 324 325 325 326 326 326 326 326 326 324 324 323 323 323 323 322 322 321 318
326 323 324 326 329 332 333 334 333 332 331 331 330 330 331 330 329 328 328 328 328 328 328 329 329 329 329 327 326 326 326 326 327 327 327 327 327 327 326 326 324 323 323 323 321 319 316 316 318 320 317 316 316 317 320 322 323 323 324 326 326 325 325 323 322 322 322 322 322 322 321 321 320 319
324 323 323 326 329 330 330 333 335 334 332 331 330 330 330 329 329 330 330 330 330 329 330 329 328 329 329 327 326 325 326 326 327 327 327 327 327 327 326 325 324 323 323 323 321 318 315 314 316 316 316 314 315 316 319 321 323 323 324 324 324 324 323 322 321 321 321 322 323 323 321 320 320 319
325 325 325 327 331 332 332 333 334 333 331 330 329 328 328 329 330 331 330 330 329 329 328 327 326 327 327 326 326 326 326 327 327 328 327 327 327 326 326 325 324 322 320 319 317 315 314 314 315 317 318 318 318 319 320 322 322 323 322 322 323 323 323 322 321 319 319 320 321 322 321 319 319 319
326 326 326 328 331 332 331 330 331 330 329 328 326 326 327 329 329 330 329 329 328 328 326 324 323 324 326 326 326 327 328 328 328 328 327 326 326 325 325 323 322 320 317 315 315 315 315 317 320 322 322 320 320 320 321 321 322 322 321 322 322 321 320 319 318 318 319 320 320 320 320 319 319 320
327 327 327 328 330 331 330 329 329 328 326 324 322 323 327 329 328 328 327 327 328 326 324 322 322 323 326 327 327 327 328 328 328 327 326 326 325 323 321 319 318 316 315 316 319 320 320 321 323 324 322 320 320 321 320 320 320 320 320 320 319 318 318 319 320 320 320 321 321 321 320 320 320 320
327 328 328 330 331 331 331 330 329 328 326 325 324 325 327 327 326 326 326 325 324 324 323 323 324 325 326 327 327 327 327 327 326 326 326 325 321 318 318 317 316 317 318 319 322 323 323 323 323 322 321 320 320 320 320 320 320 319 318 316 316 317 319 321 322 321 321 321 320 320 320 320 321 321
329 329 330 331 332 330 330 330 330 328 326 326 326 325 326 325 325 323 322 321 322 323 325 326 326 326 326 326 326 326 326 325 325 325 324 320 317 317 317 318 319 320 320 320 322 322 322 322 321 321 320 319 319 319 319 318 317 315 314 315 317 320 321 321 320 319 319 319 319 319 320 321 322 322
331 331 332 332 331 329 329 329 328 327 327 326 326 326 325 324 323 321 321 323 325 325 325 325 325 325 325 326 326 325 325 324 323 321 319 317 318 319 320 320 320 320 320 319 320 321 321 320 320 319 319 319 319 318 315 312 312 314 317 318 320 321 320 319 318 317 318 319 320 321 322 322 323 323
332 332 332 332 330 328 327 328 328 328 328 327 325 325 323 322 321 322 323 326 326 326 326 325 325 325 325 325 324 323 322 320 319 318 318 318 320 320 320 320 320 320 320 319 319 319 319 318 318 318 318 317 315 312 310 312 316 319 320 319 319 320 319 318 318 319 319 321 322 322 323 323 324 324
332 330 330 329 328 328 328 328 328 328 326 324 323 321 320 320 322 323 324 325 325 324 323 323 323 323 322 321 320 319 318 318 318 319 320 320 320 321 321 322 321 321 321 319 318 318 317 317 316 315 315 315 312 310 314 318 320 320 319 318 318 318 318 318 319 320 321 322 322 323 324 324 324 325
329 328 327 327 326 327 327 328 327 325 323 321 320 319 319 319 321 321 321 322 322 321 320 320 320 319 318 318 319 319 320 320 320 320 320 320 320 320 321 321 320 319 319 318 317 315 314 314 312 309 311 315 315 316 319 320 320 319 319 319 318 318 318 319 321 322 322 322 323 323 325 325 325 325
327 327 327 327 327 327 326 326 324 321 319 319 318 318 318 318 319 319 319 319 319 319 318 317 316 316 317 319 320 320 319 320 320 320 319 318 318 318 319 319 318 317 316 313 311 311 312 312 311 311 313 317 318 319 320 319 318 318 318 318 318 319 320 321 322 322 322 322 322 323 325 326 326 326
328 330 330 328 327 327 326 323 320 318 318 318 318 318 318 318 318 318 318 318 317 316 314 314 316 318 319 318 319 318 319 320 319 319 318 317 317 317 316 314 312 311 310 308 308 311 313 314 315 316 317 319 319 320 320 318 318 318 318 318 318 320 321 321 322 322 322 322 322 323 325 327 328 327
332 332 330 328 328 328 325 321 319 318 318 318 318 318 318 317 317 317 317 316 315 313 313 315 317 319 319 318 318 318 318 318 318 317 317 316 314 311 308 307 307 309 310 311 312 314 315 316 317 318 319 319 320 320 319 318 318 318 317 317 319 320 321 321 321 322 322 322 322 323 325 327 329 329
333 331 329 328 326 325 322 319 319 319 318 318 318 317 317 317 316 315 314 313 313 316 318 317 317 317 318 318 318 317 316 316 316 315 314 311 309 308 308 308 309 311 312 313 314 315 316 318 319 319 319 320 320 319 319 319 319 318 318 319 319 320 321 321 321 322 322 321 322 322 324 327 329 330
331 330 329 326 324 322 320 320 319 319 319 318 317 317 317 316 315 314 314 314 315 317 318 316 314 314 315 315 315 315 314 314 313 312 310 309 309 310 310 310 311 312 313 314 316 317 318 318 319 320 320 320 319 318 319 319 318 318 318 319 320 320 320 320 321 321 321 321 321 322 324 327 329 330
330 330 327 323 321 320 320 320 320 319 319 318 317 317 317 316 316 316 316 316 316 316 315 314 313 312 313 313 313 312 311 312 311 310 309 310 310 310 309 309 311 313 314 315 317 318 318 319 319 320 320 319 318 318 319 319 318 318 318 319 320 320 319 320 320 320 320 320 320 322 325 328 329 330
329 327 324 321 320 320 320 320 320 320 319 318 318 318 317 317 316 316 316 316 316 315 315 314 313 313 314 313 310 310 311 312 311 310 310 310 310 309 308 309 312 314 315 316 317 317 318 318 319 319 320 319 318 318 319 319 318 317 318 319 320 320 320 319 319 319 319 319 320 322 326 328 329 331
327 323 321 321 320 321 321 321 321 320 320 319 319 319 318 318 317 317 317 316 315 315 314 314 314 314 313 310 308 310 311 310 309 309 309 309 309 308 308 309 312 314 315 316 316 316 316 317 318 319 319 319 319 319 318 317 317 317 318 319 319 319 319 319 318 318 318 318 319 322 326 329 329 331
324 323 322 323 323 323 324 323 323 322 322 321 320 319 318 318 318 317 317 316 315 315 314 314 314 314 311 308 308 309 309 309 309 308 308 308 308 308 309 310 311 313 314 315 315 315 316 317 317 318 318 319 319 319 318 317 317 317 318 318 318 318 318 318 318 318 318 318 318 320 325 328 330 331
325 324 324 324 325 325 325 324 324 323 323 322 321 320 318 318 317 316 316 315 315 314 314 313 313 312 309 307 308 308 308 308 308 307 307 308 308 308 309 310 311 311 312 314 315 316 316 317 317 318 318 318 319 318 317 317 317 317 317 317 318 317 318 318 317 317 317 318 318 319 322 327 330 332
326 325 324 324 325 325 324 324 323 322 321 320 320 319 318 317 317 316 315 315 314 313 313 313 311 309 308 307 308 307 307 307 307 307 308 308 308 308 309 310 310 310 311 313 314 315 316 317 317 318 318 318 319 318 317 317 317 317 317 317 317 317 317 317 317 316 317 317 317 317 319 324 329 332
325 324 324 325 325 325 324 323 322 320 319 319 318 318 317 317 316 315 314 314 313 313 312 310 308 307 307 307 307 307 307 307 307 307 308 308 308 309 309 309 309 309 310 311 313 314 316 317 318 318 318 318 318 318 317 316 316 316 317 317 316 316 316 316 316 316 316 317 317 317 317 321 326 329
323 322 323 324 324 324 322 321 320 320 319 318 318 317 317 316 316 315 314 313 313 312 310 308 308 307 307 306 307 307 307 307 307 308 307 308 308 309 308 308 308 309 309 311 312 315 316 317 318 318 318 318 318 318 317 316 316 316 317 317 316 315 315 315 315 316 316 316 316 316 316 319 324 327
322 322 323 323 322 321 321 320 320 320 319 318 318 318 317 316 315 314 313 313 312 310 307 307 307 306 305 306 306 307 307 307 307 307 307 308 308 308 308 308 308 309 309 310 313 315 316 317 317 317 317 318 318 318 317 316 316 316 316 316 316 315 314 314 315 315 316 315 315 315 316 318 322 325
321 321 322 321 320 321 321 320 320 320 319 318 318 317 317 316 315 314 313 312 311 308 307 308 307 305 304 306 307 307 307 307 307 307 307 307 307 307 307 308 309 308 309 310 313 315 316 317 317 317 317 317 317 317 317 317 316 316 316 315 315 314 314 314 314 314 314 314 314 315 316 319 321 324
322 322 321 320 321 321 320 320 319 319 318 318 317 317 316 315 314 314 313 313 310 307 307 307 304 303 305 307 308 307 307 307 306 306 307 307 307 307 308 308 308 308 309 310 312 314 315 316 316 316 317 317 317 317 317 316 316 316 315 314 314 314 313 313 313 314 313 313 313 314 316 318 321 324
322 321 321 320 320 320 319 319 319 318 317 317 316 316 315 314 313 312 312 311 309 306 304 303 303 305 307 308 307 306 306 306 306 306 306 306 307 307 308 308 308 308 309 311 312 314 315 316 316 317 317 317 317 317 317 316 315 315 314 314 314 314 313 313 313 313 312 312 313 313 314 316 319 321
322 321 321 321 320 319 318 318 318 317 317 316 316 315 315 313 313 312 311 310 308 306 305 305 306 307 308 306 306 306 306 305 305 305 306 306 307 307 308 308 308 308 309 310 312 313 314 315 316 317 316 317 317 317 316 315 315 314 313 313 313 313 313 313 312 312 311 311 312 312 312 313 315 317
322 321 321 320 319 318 318 317 317 316 316 315 314 314 313 312 312 312 310 308 307 307 307 307 307 307 306 306 306 306 305 305 305 305 305 306 307 307 307 308 308 308 308 310 311 312 313 314 315 316 316 316 317 317 316 315 314 312 312 312 312 313 313 313 312 312 311 311 311 311 311 311 312 312
321 320 320 319 318 318 317 317 316 316 315 314 313 312 312 312 311 310 308 307 306 307 306 306 306 306 305 305 305 304 303 304 305 305 305 306 306 307 307 307 307 307 308 309 309 309 311 313 314 315 315 316 317 318 316 315 313 312 312 312 312 313 312 311 311 311 311 311 311 311 311 312 311 311
320 319 319 318 318 317 317 317 316 316 315 314 313 312 311 311 310 308 306 305 305 305 306 306 306 306 305 305 304 303 303 304 305 305 305 305 306 307 307 307 307 307 308 308 307 307 309 312 313 314 315 316 317 317 315 314 313 312 312 312 312 312 312 310 309 309 309 309 310 310 311 312 312 313
Wind_Speed
10 10 9 8 9 10 10 11 13 12 11 11 11 10 9 9 9 9 9 9 10 10 8 7 9 10 12 16 16 16 18 17 16 16 16 18 19 18 19 20 20 20 19 19 18 18 18 18 18 18 19 19 19 20 20 21 22 23 23 23 24 24 24 24 23 23 23 23 24 26 27 28 29 30
11 11 13 12 11 12 11 10 9 8 8 9 10 9 9 8 8 9 11 12 12 11 9 8 9 11 14 16 17 18 20 19 17 17 17 19 20 19 20 21 22 22 22 22 20 19 19 18 19 19 19 19 19 20 20 21 22 23 24 24 24 25 25 25 25 24 24 24 25 25 26 27 28 30
9 8 9 11 11 12 12 10 8 7 9 11 10 9 9 8 8 8 11 14 13 11 11 11 11 11 13 16 18 19 19 20 21 21 20 20 20 20 21 22 22 23 23 23 22 20 19 19 20 20 20 20 20 20 20 20 20 22 23 24 24 24 25 26 26 26 25 25 25 26 26 26 27 28
9 8 9 10 11 11 11 10 9 10 12 13 11 10 10 9 8 9 11 14 15 12 12 13 14 12 12 15 17 17 18 20 22 23 22 21 20 20 21 22 23 23 23 23 22 21 21 22 23 24 24 21 20 20 21 20 20 21 22 24 25 25 26 27 27 27 26 26 26 26 26 27 27 28
12 13 13 13 14 14 13 11 10 11 13 14 10 7 8 8 8 9 10 12 15 14 13 13 14 15 15 15 15 16 16 17 20 21 21 20 20 21 23 24 25 25 24 24 23 22 23 24 26 27 27 24 21 21 21 21 23 24 25 25 26 27 27 27 27 27 27 27 27 28 28 28 28 29
16 16 16 16 16 15 13 12 11 12 13 13 9 6 7 8 8 9 9 11 15 16 16 14 15 16 17 16 16 16 16 17 19 21 21 20 20 22 24 25 26 26 25 24 23 24 25 26 27 28 28 26 25 24 23 24 26 27 26 25 26 26 26 25 24 25 27 28 29 29 29 29 29 29
16 16 15 15 16 14 13 12 11 12 13 12 8 8 11 11 11 12 13 13 15 17 19 18 17 17 17 17 19 19 20 20 20 21 23 23 22 22 22 24 26 27 26 25 23 24 26 28 29 30 29 27 27 27 27 28 28 28 27 26 26 25 24 24 26 27 28 29 30 30 30 31 31 31
13 13 14 15 14 12 11 12 12 13 13 11 9 11 14 14 14 14 14 14 14 17 19 19 19 19 19 19 19 20 22 23 22 23 24 24 24 22 21 22 24 26 27 25 23 23 26 28 29 30 30 29 29 29 29 29 29 28 28 26 25 24 24 27 28 29 29 29 30 30 30 31 30 28
14 14 16 15 12 10 11 13 13 12 11 12 11 13 15 16 17 16 17 17 16 18 20 21 22 23 22 21 21 21 22 23 23 24 25 24 24 23 21 21 22 24 24 23 22 24 26 28 29 30 31 31 31 31 30 30 30 29 28 28 27 27 29 30 29 28 29 29 29 28 28 28 28 26
15 14 16 16 14 14 14 14 14 13 12 13 14 14 15 17 19 20 21 21 20 20 21 22 25 27 25 25 26 24 23 23 25 26 26 25 24 22 20 21 23 23 22 21 22 24 26 28 30 32 32 31 30 30 30 30 30 30 31 32 33 33 33 31 28 27 27 27 27 26 26 26 28 29
14 13 14 17 18 17 16 16 16 15 15 16 17 17 17 18 21 23 23 22 22 22 23 25 28 28 27 27 28 27 25 25 27 27 25 23 23 23 22 23 25 25 23 23 25 26 28 28 29 29 30 30 30 30 30 30 31 33 35 35 36 35 33 29 26 25 25 25 26 26 27 28 29 31
15 14 15 17 16 15 15 16 17 16 15 15 17 17 18 20 22 24 24 23 24 25 26 29 30 29 29 29 29 27 26 26 27 26 24 24 24 25 26 27 28 27 27 28 28 28 28 29 29 28 29 30 31 32 32 33 35 36 36 35 34 32 29 27 26 27 27 28 29 30 30 31 32 33
17 17 18 18 15 14 16 18 18 18 17 17 18 18 19 21 23 24 25 26 28 29 30 31 32 30 29 29 29 28 26 25 25 25 25 25 26 26 27 29 29 29 30 30 29 28 30 32 32 31 32 34 34 34 34 35 36 36 35 34 32 29 29 30 30 30 31 32 33 34 35 36 37 39
18 17 18 18 17 17 18 20 20 20 19 18 18 18 20 22 24 26 27 28 29 30 31 32 31 30 30 30 30 29 27 26 26 26 26 27 27 27 28 30 29 29 29 28 29 31 33 35 35 34 36 38 38 37 37 36 35 34 33 31 29 30 31 32 32 33 35 36 36 37 39 40 41 45
18 17 17 17 18 19 19 21 21 21 19 18 17 19 20 22 23 24 25 26 27 29 31 31 29 30 32 32 31 31 30 29 28 28 27 28 29 29 29 30 30 29 28 29 32 35 37 38 39 39 39 39 39 37 36 35 33 31 30 28 28 29 30 32 34 36 38 38 39 41 42 43 46 50
19 17 16 17 18 20 22 22 22 19 18 18 19 20 21 23 24 24 25 27 28 29 29 28 26 29 32 33 32 32 32 31 30 30 30 30 30 30 29 31 32 32 32 34 37 40 40 38 38 36 34 33 33 32 31 30 29 29 28 29 30 31 32 35 39 41 41 41 42 44 45 48 50 52
19 19 19 18 20 23 24 23 21 19 18 20 23 25 26 26 26 26 27 30 31 29 26 26 27 28 30 32 32 32 34 33 30 30 30 30 31 33 34 36 37 35 34 34 36 39 37 32 30 30 28 28 29 29 29 28 28 29 29 31 35 37 39 41 42 41 41 41 43 46 49 52 53 53
20 22 21 21 23 25 23 20 19 19 19 23 27 30 30 28 27 28 29 29 29 27 25 26 27 26 27 30 31 32 32 30 27 27 29 31 35 39 39 38 36 33 30 27 28 33 33 28 27 29 28 28 29 30 30 31 32 33 34 36 39 40 40 38 38 38 40 42 45 49 52 54 54 53
21 22 22 22 23 22 20 19 19 19 21 23 26 28 28 26 25 25 24 23 23 24 24 24 24 24 25 27 28 29 28 28 28 30 33 36 39 39 36 32 30 27 24 21 22 31 32 28 29 31 29 30 31 31 31 33 35 36 38 39 39 38 37 35 36 39 43 46 48 51 52 52 52 51
21 21 21 22 21 20 19 19 20 21 23 24 24 24 24 23 21 20 19 19 21 22 21 21 21 22 24 26 28 29 30 31 32 34 37 37 34 30 27 27 25 24 23 20 21 29 31 29 30 32 30 30 32 32 34 36 37 38 39 38 38 37 38 39 42 44 46 48 49 50 50 50 50 49
21 21 22 21 21 20 20 21 22 23 23 22 22 21 19 19 19 19 19 18 18 18 18 19 19 21 23 26 28 30 31 33 34 35 34 29 23 22 24 26 26 25 24 23 22 27 31 30 29 30 30 32 34 36 39 39 38 37 37 37 37 39 42 44 46 48 49 49 49 49 49 49 49 46
20 21 21 22 22 22 22 23 23 21 19 18 17 17 17 18 19 19 18 16 17 18 19 21 22 23 25 28 30 32 33 33 31 28 24 20 19 23 26 27 28 27 25 22 21 25 28 27 26 29 33 37 38 38 39 37 36 36 38 39 39 42 44 46 48 49 50 49 48 48 48 45 41 38
17 17 18 21 22 23 23 23 19 15 14 15 16 17 18 19 18 18 18 19 20 21 23 24 25 26 28 29 30 30 27 23 19 17 18 19 22 27 29 28 28 28 24 21 21 24 28 29 30 33 36 39 39 37 35 35 36 38 40 42 42 42 44 47 49 49 49 47 46 46 44 38 32 31
15 16 18 21 22 22 20 17 12 11 13 15 16 18 19 19 19 20 20 21 22 23 24 24 25 26 25 23 22 21 20 18 16 17 19 19 20 22 25 25 25 25 25 25 26 29 32 33 33 33 33 35 37 37 36 37 38 40 41 42 43 44 46 49 49 48 46 44 44 44 40 33 30 32
17 18 19 20 20 17 14 11 10 12 14 16 17 18 18 19 20 20 20 21 22 22 22 23 22 20 19 17 17 17 17 16 16 18 17 15 15 17 21 24 26 29 32 33 31 30 31 31 31 31 31 32 36 39 40 41 40 40 40 42 43 45 46 47 47 44 42 42 43 42 38 32 30 32
18 19 19 18 16 12 10 10 11 13 15 16 17 17 18 18 19 19 21 21 20 20 20 18 16 15 17 17 16 15 13 13 17 20 20 21 23 25 26 28 30 32 33 30 26 26 27 28 28 29 31 34 36 38 40 42 42 42 42 42 42 44 45 44 43 42 41 42 42 39 35 31 29 30
18 18 17 16 13 10 10 11 13 15 16 17 17 17 17 18 19 20 20 19 17 16 15 14 13 15 18 19 17 16 16 17 20 23 25 27 28 27 25 24 24 25 26 26 24 24 25 26 27 29 32 34 35 36 38 41 43 45 46 43 42 43 44 42 41 41 42 44 43 38 32 29 28 28
19 18 16 13 10 10 12 13 15 16 17 17 16 14 14 15 18 18 18 16 11 9 10 14 16 17 18 18 17 18 19 21 23 25 26 25 23 21 20 20 22 23 24 24 23 22 22 24 28 30 31 30 32 34 37 40 43 45 47 45 43 43 43 42 41 42 44 46 44 40 33 28 27 27
18 16 12 10 9 11 13 14 16 17 15 13 11 9 9 11 11 11 11 9 7 7 11 16 18 17 16 16 17 19 21 22 23 22 21 19 18 18 20 22 23 22 21 21 20 19 21 25 28 29 28 27 29 32 36 40 44 45 45 45 45 44 43 42 43 44 46 46 45 41 36 29 26 28
17 14 12 10 11 12 13 15 17 15 10 7 6 7 8 8 7 8 8 6 7 13 17 19 19 17 14 15 19 20 20 19 18 18 18 18 19 20 21 22 21 19 18 18 18 19 22 25 26 27 27 26 27 31 35 39 43 44 43 43 45 45 44 43 45 45 45 46 45 40 35 29 26 27
16 14 12 11 11 12 14 16 16 12 6 6 7 8 7 7 7 7 7 7 11 17 19 20 20 17 15 18 22 20 18 17 17 17 17 19 20 20 21 22 22 20 20 19 20 22 24 24 24 26 27 27 29 31 34 37 40 42 41 41 42 44 45 45 46 45 44 45 44 39 33 29 24 24
15 14 13 13 13 14 14 14 12 8 7 8 8 7 7 7 7 7 8 11 15 16 17 18 17 15 18 21 21 18 17 17 16 16 17 19 20 20 20 21 22 22 22 23 24 26 26 24 24 25 26 27 30 32 33 35 36 37 39 40 40 41 43 45 45 45 44 43 43 38 33 29 23 22
15 14 13 14 14 12 11 10 9 9 11 12 10 8 8 7 6 9 13 15 14 14 15 16 16 18 21 21 18 16 17 17 16 17 18 18 19 19 20 22 22 22 23 25 26 27 28 28 28 28 27 28 29 29 29 32 33 34 37 39 40 41 43 43 44 44 43 42 41 39 35 29 24 20
14 13 13 14 14 12 11 11 11 12 14 14 11 9 8 7 8 12 14 13 11 12 14 17 19 22 22 18 16 16 16 16 17 18 17 17 18 19 20 21 21 22 23 25 26 27 27 29 31 32 31 31 30 26 23 26 31 34 35 37 39 41 43 44 44 43 41 39 38 39 37 32 24 19
14 13 13 14 14 12 12 13 12 11 12 12 9 8 9 11 12 13 13 12 13 15 17 20 22 22 18 15 15 16 16 17 18 18 17 17 18 18 19 20 21 22 23 24 25 25 27 29 31 32 33 35 33 28 23 23 29 33 36 37 38 39 41 43 43 42 40 38 37 38 38 34 25 18
15 14 14 14 15 14 14 13 11 11 13 13 12 12 12 13 13 12 12 15 18 20 21 20 18 15 13 13 15 15 15 17 17 17 17 18 18 18 19 20 21 22 23 24 25 24 25 27 28 29 32 34 33 30 28 27 27 30 34 37 38 38 39 42 42 40 39 38 36 36 37 35 28 21
17 16 15 15 16 16 16 13 11 12 12 11 11 12 12 13 16 17 18 18 19 19 18 16 13 11 12 14 15 15 15 16 16 17 18 18 18 18 19 20 21 22 23 24 24 22 23 26 27 29 31 30 28 29 31 31 28 27 30 34 37 38 39 40 40 39 38 37 35 35 37 36 30 23
18 15 15 17 17 16 14 13 13 14 13 10 10 11 12 13 15 15 14 14 14 15 15 13 12 12 13 13 14 15 15 15 16 17 18 17 18 19 20 21 22 23 23 24 23 22 23 26 28 31 31 27 25 28 31 34 33 31 30 31 34 37 38 38 38 38 37 36 36 36 37 35 29 23
18 17 18 19 15 11 9 10 12 15 16 15 13 12 14 15 14 13 14 15 13 13 12 12 13 13 13 13 14 14 14 15 16 17 17 17 18 19 20 20 22 23 24 24 23 22 24 26 29 31 29 24 23 25 28 31 34 33 31 30 31 34 36 36 35 34 33 35 38 39 38 34 26 18
18 17 15 11 9 10 11 11 11 12 14 14 13 12 13 16 17 18 21 21 18 15 15 16 16 14 11 11 13 13 14 15 16 16 17 18 18 19 19 20 22 22 23 23 23 23 24 26 27 28 26 23 23 24 25 27 30 32 32 30 29 31 33 33 32 30 30 32 36 38 37 36 29 19
13 10 7 7 10 13 14 12 11 11 10 10 11 12 13 13 13 15 18 19 17 14 13 13 11 9 9 11 12 13 14 15 15 16 17 17 18 19 19 20 21 21 21 23 24 23 23 25 25 25 25 23 21 22 24 27 29 32 33 31 30 31 31 29 26 25 26 28 31 33 34 34 32 27
8 7 8 10 13 13 11 10 11 11 10 10 12 14 14 12 11 15 19 19 15 11 9 8 7 7 9 12 12 13 14 15 15 16 16 17 18 19 19 20 20 21 21 23 23 22 23 25 24 24 25 24 20 21 24 26 28 31 33 33 32 32 32 28 23 21 22 24 26 28 31 33 34 34
9 10 11 12 12 11 10 10 9 9 11 13 13 14 14 12 13 16 19 16 12 10 10 9 9 10 11 11 12 13 14 14 14 15 16 17 18 19 19 20 20 20 21 22 23 22 23 23 24 25 27 26 23 21 22 23 26 31 33 33 33 33 33 31 24 18 17 19 19 20 22 24 26 30
12 12 12 11 11 10 10 10 9 10 11 11 9 10 13 15 15 16 15 11 9 10 10 10 11 11 11 11 13 14 13 13 14 15 16 17 17 18 18 19 19 20 21 21 23 24 23 22 23 24 25 25 23 21 20 21 25 30 32 31 31 33 35 35 30 23 18 17 17 17 16 15 15 18
14 13 12 11 10 9 10 11 12 12 12 11 10 13 18 18 16 13 11 9 9 9 10 11 11 10 11 12 13 13 13 13 14 14 15 16 16 17 18 18 19 20 20 21 24 25 23 21 22 22 21 22 23 21 20 20 23 28 30 30 30 32 35 37 36 32 27 22 18 17 16 14 13 14
Wind_Direction
212 222 240 261 276 263 236 227 234 243 248 252 258 261 261 262 264 271 275 276 278 269 268 295 300 291 291 291 291 291 293 293 287 284 284 287 289 289 292 297 295 294 294 294 294 291 290 290 287 286 286 286 285 284 284 284 284 284 284 284 284 284 282 281 280 279 278 277 276 275 273 270 267 264
221 220 222 225 240 257 259 252 246 251 259 263 269 270 267 264 264 271 277 283 291 288 282 281 287 298 300 293 293 296 295 293 291 289 288 289 289 287 289 293 293 293 294 296 295 289 286 286 285 284 282 282 282 282 284 285 286 285 283 283 283 282 283 283 282 281 279 277 277 276 274 272 270 268
233 233 236 238 243 251 255 255 253 251 250 256 264 268 269 266 265 272 278 284 292 298 294 285 281 289 292 292 297 298 295 295 296 296 294 295 295 293 292 291 290 290 291 293 293 289 288 290 289 286 282 280 279 280 283 285 286 286 284 281 280 280 281 281 281 282 281 279 277 277 276 275 273 271
236 248 257 262 266 266 260 250 247 248 249 254 255 257 264 264 269 273 271 277 287 293 294 291 291 292 288 285 284 284 288 291 292 293 294 296 297 296 294 293 292 291 292 292 290 288 291 295 295 291 289 286 281 282 285 287 289 292 290 285 281 281 282 281 279 278 278 277 276 276 275 275 275 274
233 237 241 247 256 264 264 255 249 251 258 266 263 259 275 284 290 290 282 284 290 293 296 295 297 302 300 291 283 283 287 287 288 292 295 297 297 294 293 293 293 293 294 294 291 287 288 290 289 289 291 292 289 287 286 287 291 294 293 288 283 282 283 281 277 275 274 274 273 274 273 272 272 272
241 242 239 240 246 253 259 258 254 252 260 270 267 267 281 279 280 283 279 279 286 297 306 303 301 306 305 299 294 292 292 287 284 285 287 289 290 290 291 292 292 292 292 291 285 280 279 278 280 284 288 289 291 291 289 288 291 293 292 288 283 283 282 277 274 274 274 274 273 273 273 272 270 269
244 250 246 242 243 246 252 258 259 258 267 274 263 250 256 258 263 269 268 271 285 301 307 302 300 306 308 302 298 297 296 290 283 282 283 283 280 280 283 287 289 291 292 289 283 278 276 276 278 282 284 286 289 291 291 292 293 294 293 288 283 282 282 278 278 279 279 277 274 273 273 273 272 272
245 247 247 249 249 245 246 254 259 263 274 281 266 253 262 272 278 280 277 278 286 296 300 300 299 302 305 306 304 300 294 287 285 289 293 291 286 279 275 278 283 287 291 289 283 280 280 281 283 285 287 290 291 291 292 294 295 296 295 291 285 284 286 286 284 283 280 277 275 273 272 273 274 275
241 241 245 251 255 249 247 253 257 261 270 277 272 269 274 281 284 287 288 286 285 287 292 296 298 298 300 305 308 302 293 287 287 293 299 298 293 286 283 283 285 290 295 293 286 284 284 285 286 287 289 293 293 292 293 294 295 294 293 291 288 288 292 290 284 281 277 274 273 273 271 270 269 274
241 243 242 242 243 242 242 247 250 251 253 258 262 265 269 274 280 287 291 288 284 284 286 293 299 299 298 302 306 304 298 292 290 294 300 299 292 288 288 290 291 295 296 291 286 286 286 286 285 285 289 292 293 293 293 293 292 290 289 289 288 289 292 290 283 279 276 270 269 270 271 269 270 277
243 247 243 239 238 238 238 242 248 252 253 252 252 257 263 269 276 283 288 288 286 287 289 293 294 293 292 295 299 301 298 293 292 294 299 299 295 292 290 290 292 292 288 285 284 286 288 289 286 283 284 287 288 288 288 287 286 285 285 286 286 287 289 288 284 281 276 269 266 266 268 271 275 282
241 243 240 239 239 239 240 243 250 257 261 261 261 263 267 270 274 281 288 289 288 288 289 289 288 287 287 288 293 297 295 293 295 297 297 297 295 294 292 292 293 294 293 292 292 292 294 295 291 286 283 284 284 283 281 281 282 283 284 285 287 287 287 287 285 282 278 274 270 268 268 271 275 281
241 240 238 238 235 236 243 247 252 259 265 268 270 269 269 271 276 284 290 290 290 289 287 286 286 285 282 284 290 294 293 292 293 294 293 292 290 290 289 289 292 295 296 296 295 295 297 296 292 288 288 289 288 287 285 283 283 285 285 285 286 285 283 283 282 282 281 278 274 273 273 272 273 278
244 245 244 240 232 231 241 248 250 255 260 264 268 271 274 279 284 290 292 291 290 288 285 285 286 283 279 282 288 291 291 291 291 290 289 286 285 286 288 291 294 297 297 295 293 294 297 295 290 288 290 291 291 290 289 287 287 287 285 282 281 280 282 285 286 286 286 282 276 274 275 275 277 281
248 248 244 237 231 232 240 246 249 253 259 264 269 275 280 286 289 290 288 287 286 283 281 283 283 280 277 279 285 289 291 290 288 286 283 282 283 285 290 294 295 296 296 293 291 293 295 293 289 289 290 291 291 290 289 289 290 288 284 282 284 285 284 286 286 285 285 283 276 273 274 277 281 283
249 246 237 231 234 240 242 245 251 259 265 269 274 279 284 287 289 287 284 285 284 280 277 279 277 273 274 277 282 288 290 287 283 281 280 282 283 285 289 292 292 293 295 292 291 293 293 292 290 291 293 293 292 291 290 291 290 288 287 287 287 285 281 280 283 284 284 282 278 274 274 279 283 284
248 244 236 231 236 243 244 248 258 270 276 281 287 290 288 287 288 289 290 290 286 277 274 278 277 275 276 279 284 288 287 284 281 280 280 282 285 287 290 291 292 294 297 296 294 293 292 293 295 296 298 298 296 296 297 295 292 290 289 285 281 280 280 281 284 284 282 280 278 276 277 281 285 285
248 245 241 237 239 245 252 259 269 277 282 287 291 290 286 285 290 294 294 292 285 278 277 279 278 278 280 282 285 287 287 284 283 282 283 288 292 293 293 293 295 298 299 298 296 293 294 298 298 297 300 300 298 298 297 293 290 287 283 279 278 280 283 284 284 282 280 278 278 278 280 282 284 282
252 250 246 243 245 252 261 270 275 280 282 285 287 286 284 287 294 294 292 289 283 279 279 278 278 280 282 283 285 286 285 283 283 284 287 292 294 294 294 297 299 300 301 299 292 289 291 296 295 294 297 297 295 294 292 288 285 282 279 280 284 287 289 286 284 282 281 281 282 282 283 283 281 279
255 255 251 248 252 261 269 274 276 278 279 281 285 287 288 290 291 290 288 286 281 277 279 282 284 286 286 286 285 283 281 280 282 285 288 291 293 294 297 301 302 301 302 300 291 285 288 293 294 295 296 295 293 291 287 285 285 285 287 290 292 293 292 290 291 292 292 291 290 289 287 285 282 280
254 252 250 252 259 267 273 275 276 277 279 282 286 287 287 287 286 287 289 287 283 283 285 285 284 282 280 278 276 276 278 281 284 287 288 290 292 293 296 300 301 299 300 302 297 290 291 294 295 295 294 291 289 289 288 290 293 296 298 298 295 294 295 298 301 302 301 299 296 292 289 287 282 278
257 252 250 254 260 267 272 275 277 279 281 282 284 285 285 285 287 287 285 280 278 280 281 280 279 278 278 279 280 282 284 287 287 285 286 291 293 289 290 293 295 296 298 303 299 291 291 294 296 297 294 291 290 292 294 299 303 305 306 305 302 300 302 304 305 304 301 299 297 293 291 287 280 272
259 256 253 255 260 265 271 275 278 279 277 278 281 283 284 283 282 280 278 278 279 279 279 280 282 283 284 285 287 290 294 297 294 287 289 294 292 288 288 288 290 291 294 295 290 287 290 295 296 297 297 296 296 299 302 306 308 309 310 311 310 309 309 307 306 304 302 299 298 297 293 287 278 271
260 259 258 260 264 267 269 270 270 271 273 276 279 281 281 281 279 279 279 279 281 281 282 285 288 290 293 294 294 295 300 305 305 302 303 304 302 297 292 287 285 284 284 284 284 287 291 295 295 295 297 297 298 302 307 309 311 312 313 314 313 313 312 310 307 306 304 302 302 301 295 286 278 274
260 263 263 263 267 268 262 257 263 271 276 279 281 282 282 282 281 281 280 280 281 284 288 292 297 300 298 292 289 289 289 292 297 299 299 295 289 284 282 281 281 281 281 283 288 292 294 296 297 298 299 299 300 303 307 310 314 317 317 316 314 314 314 313 311 309 307 307 308 304 295 287 279 272
259 263 264 266 270 265 252 256 272 279 281 283 285 285 284 283 281 279 279 281 284 289 294 298 305 307 298 292 295 300 298 295 293 286 277 270 270 271 274 278 282 285 287 290 296 298 297 298 299 299 299 301 303 305 307 311 317 320 319 318 317 318 319 318 315 312 311 312 312 305 295 286 280 272
251 257 264 270 271 258 252 267 279 282 286 290 292 294 294 291 287 283 282 282 286 295 301 301 303 303 298 299 305 307 302 294 287 280 274 274 277 281 285 288 289 292 296 299 302 301 299 300 301 299 298 301 304 306 308 310 316 320 320 320 321 322 323 322 318 316 316 315 314 309 298 284 277 272
248 257 264 265 258 248 257 273 281 286 293 297 302 309 311 303 294 289 287 284 288 308 312 301 298 296 292 293 296 296 292 286 282 281 282 286 293 299 304 305 302 300 300 301 303 306 302 299 298 299 301 303 303 305 308 311 314 317 319 320 322 324 325 324 321 319 317 316 315 315 308 289 273 269
250 259 259 252 248 254 265 275 281 287 294 300 307 323 331 322 312 307 303 294 289 302 300 296 300 299 290 289 290 287 285 284 286 292 299 306 313 312 308 305 301 300 302 306 309 308 300 295 297 300 302 303 303 304 308 311 315 318 320 320 322 325 327 326 323 321 318 317 316 317 314 298 274 266
248 251 250 250 256 262 269 274 278 282 289 297 305 318 331 339 344 339 334 323 309 309 306 306 311 308 296 293 297 296 296 298 303 312 315 312 308 305 305 307 307 310 315 315 311 307 302 301 305 305 302 301 302 306 309 312 315 320 323 324 324 325 326 326 325 323 320 319 318 317 315 304 279 263
245 244 246 254 262 266 271 273 272 273 281 294 300 308 322 339 345 337 331 318 306 304 303 308 315 313 301 302 307 309 310 309 309 310 307 302 301 304 310 314 315 320 324 319 311 309 310 311 311 310 306 302 301 307 313 315 316 321 327 329 327 325 325 326 326 325 323 323 321 318 317 311 289 266
238 238 245 254 262 267 272 271 265 266 289 302 302 301 307 321 327 317 311 308 303 300 302 310 313 304 299 306 311 309 306 305 306 307 303 301 304 310 316 317 316 318 320 315 312 314 318 319 317 314 313 307 303 308 314 316 318 324 329 330 328 326 325 326 327 326 326 327 325 321 318 317 306 282
232 238 247 255 263 268 276 278 272 276 292 299 298 298 303 308 301 296 301 304 300 299 304 305 295 291 300 308 308 304 304 306 306 306 306 307 312 317 319 317 315 315 314 311 313 318 321 322 321 320 319 315 311 311 313 315 321 329 331 330 330 328 326 326 327 327 328 329 329 325 319 319 323 311
234 242 252 260 267 274 282 285 280 278 284 288 290 293 295 287 281 287 292 291 283 285 288 285 285 295 306 307 301 301 306 307 307 309 314 318 319 318 318 317 315 314 313 312 316 319 319 320 323 323 321 319 316 314 314 319 326 332 332 332 332 330 328 327 327 327 329 330 331 328 323 321 326 328
232 239 251 261 264 264 267 271 273 275 279 283 285 287 284 280 281 280 274 271 279 287 288 288 294 301 302 299 301 307 308 307 311 316 319 319 318 317 318 317 315 315 316 315 316 318 318 320 325 325 322 321 320 319 324 332 333 332 333 334 334 332 329 328 328 328 329 331 332 331 328 324 321 322
227 232 242 250 249 246 250 258 265 275 278 273 274 284 283 275 276 279 279 282 285 288 293 300 305 306 304 304 307 307 306 308 314 318 318 319 321 320 319 316 315 317 318 317 318 320 319 323 328 326 323 324 323 319 326 338 339 336 336 335 336 336 333 330 330 330 330 332 333 331 331 328 324 320
234 240 242 244 246 252 263 267 266 273 275 264 263 277 280 276 281 288 289 287 286 290 301 311 314 310 308 306 302 302 308 314 317 318 319 321 322 321 319 318 319 319 319 320 324 326 323 325 331 329 327 327 323 318 323 334 340 343 342 337 337 340 340 335 333 331 330 331 331 330 329 329 326 321
242 244 245 252 258 266 277 277 265 262 262 254 252 262 269 281 293 292 279 277 290 301 303 301 298 297 297 297 299 306 314 318 317 318 321 323 322 320 319 320 320 320 322 326 330 328 323 326 333 335 332 329 323 320 323 329 335 342 347 344 341 343 344 340 336 332 331 330 328 327 329 330 328 323
251 256 261 267 271 272 273 271 263 262 263 261 260 260 265 277 289 287 277 280 294 299 289 281 286 293 296 300 307 311 314 315 316 319 322 322 320 320 321 321 322 324 326 329 329 326 324 328 335 336 332 326 322 321 323 326 331 337 344 348 348 348 347 345 339 336 335 333 330 328 329 330 329 322
261 265 265 260 254 253 254 255 261 269 272 270 266 267 277 285 286 282 282 288 294 291 282 279 285 294 299 304 310 311 310 313 316 319 322 320 319 322 323 323 324 327 328 327 326 325 327 332 335 336 331 321 316 319 325 329 333 336 340 345 351 354 354 349 343 341 342 340 335 334 334 334 335 333
258 258 250 234 238 250 255 253 252 259 269 273 270 272 280 289 287 279 281 291 302 303 291 285 293 307 307 305 307 307 308 313 317 319 320 320 321 325 326 325 327 328 327 325 326 327 328 331 335 340 339 329 320 325 334 338 338 338 342 347 352 356 359 357 352 350 351 347 342 342 343 343 343 343
243 232 239 246 249 252 256 255 251 250 255 266 276 280 280 285 290 289 290 296 306 316 317 319 325 318 302 299 304 305 307 313 316 316 319 324 326 327 327 326 328 328 326 325 326 326 327 330 335 343 347 344 338 338 341 344 344 344 347 350 351 353 359 3 0 360 1 358 352 352 354 354 351 349
233 231 240 251 257 258 258 257 255 256 260 267 281 291 285 270 267 279 288 294 299 304 311 311 303 296 295 299 303 303 305 310 314 317 324 328 328 326 326 327 328 328 327 326 325 324 326 331 335 340 343 345 345 342 341 346 351 352 352 353 352 355 1 5 6 5 5 1 358 360 6 8 4 358
232 238 244 250 255 256 255 254 253 258 269 279 291 292 279 269 268 276 283 284 282 284 287 283 283 291 298 297 295 299 306 314 321 325 327 326 325 326 327 327 328 329 329 328 326 326 329 333 334 335 338 341 343 343 343 348 354 355 356 358 359 3 8 10 9 10 10 7 3 2 5 15 17 11
235 240 243 246 249 252 255 256 257 264 278 286 279 270 272 278 283 284 280 277 275 274 274 278 286 292 290 288 296 309 319 326 327 324 322 323 326 328 328 328 329 331 331 329 328 331 335 337 335 333 334 337 341 343 346 352 357 360 3 6 8 14 18 17 14 16 19 20 20 13 4 2 8 14